Location: Newark
(40.1631°N, 15.6720°E)
Time: 15:51:23
(UTC+00:00)

Envisat - Visible Passes

Search period start: 06 December 2019 00:00
Search period end: 16 December 2019 00:00
Orbit: 764 x 766 km, 98.1° (Epoch: 06 December)

Date Brightness Start Highest point End Pass type
(mag) Time Alt. Az. Time Alt. Az. Time Alt. Az.
06 Dec 3.8 05:31:08 10° NNE 05:36:09 58° E 05:41:08 10° S visible
06 Dec 2.9 16:44:55 10° SSE 16:49:58 72° ENE 16:55:02 10° N visible
06 Dec 6.1 18:27:23 10° WSW 18:29:29 12° W 18:31:36 10° WNW visible
07 Dec 5.4 04:54:58 10° NE 04:59:12 26° E 05:03:23 10° SSE visible
07 Dec 3.6 16:08:54 10° SE 16:13:23 32° ENE 16:17:52 10° N visible
07 Dec 5.0 17:48:01 10° SSW 17:52:22 28° W 17:56:44 10° NW visible
08 Dec 6.3 04:20:38 10° ENE 04:22:03 11° E 04:23:28 10° ESE visible
08 Dec 3.4 17:10:25 10° S 17:15:26 65° W 17:20:31 10° NNW visible
09 Dec 4.3 05:19:57 10° NNE 05:24:50 45° E 05:29:41 10° S visible
09 Dec 3.0 16:33:46 10° SSE 16:38:43 56° ENE 16:43:42 10° N visible
09 Dec 5.8 18:14:58 10° SW 18:18:05 16° W 18:21:12 10° NW visible
10 Dec 5.8 04:44:05 10° NE 04:47:50 20° E 04:51:33 10° SE visible
10 Dec 3.9 15:58:02 10° ESE 16:02:11 26° ENE 16:06:20 10° NNE visible
10 Dec 4.5 17:36:23 10° SSW 17:41:01 36° W 17:45:42 10° NNW visible
11 Dec 3.0 16:59:05 10° S 17:04:09 82° WSW 17:09:16 10° NNW visible
12 Dec 4.8 05:08:50 10° NNE 05:13:30 36° E 05:18:09 10° SSE visible
12 Dec 3.3 16:22:41 10° SE 16:27:29 44° ENE 16:32:18 10° N visible
12 Dec 5.5 18:02:57 10° SW 18:06:42 21° W 18:10:28 10° NW visible
13 Dec 6.0 04:33:21 10° NE 04:36:27 16° E 04:39:31 10° SE visible
13 Dec 4.1 17:24:50 10° S 17:29:41 46° W 17:34:35 10° NNW visible
14 Dec 3.6 05:34:01 10° NNE 05:39:05 64° E 05:44:07 10° S visible
14 Dec 2.9 16:47:49 10° SSE 16:52:53 79° ENE 16:57:59 10° N visible
14 Dec 6.2 18:30:59 10° WSW 18:32:28 11° W 18:33:58 10° WNW visible
15 Dec 5.2 04:57:47 10° NE 05:02:10 28° E 05:06:30 10° SSE visible
15 Dec 3.5 16:11:42 10° SE 16:16:16 35° ENE 16:20:52 10° N visible
15 Dec 5.1 17:51:07 10° SSW 17:55:19 26° W 17:59:33 10° NW visible
